Regional Weather Roundup
Issued by NWS Midland/Odessa, TX

Home | Current Version | Previous Version | Text Only | Print | Product List | Glossary On
Versions: 1 2 3 4 5 6 7 8 9 10 11 12 13 14 15 16 17 18 19 20 21 22 23 24 25 26 27 28 29 30 31 32 33 34 35 36 37 38 39 40 41 42 43 44 45 46 47 48 49 50
000
ASUS44 KMAF 202210
RWRMAF
MIDLAND AREA WEATHER ROUNDUP
NATIONAL WEATHER SERVICE MIDLAND TX
500 PM CDT MON OCT 20 2014

...IN SOUTHWEST TEXAS AND SOUTHEAST NEW MEXICO...

CITY           SKY/WX    TMP DP  RH WIND       PRES   REMARKS
ALPINE         CLOUDY    60  54  81 E7        30.15S
ANDREWS        FAIR      75  52  44 SE13      30.06F
ARTESIA        NOT AVBL
BIG SPRING     MOSUNNY   79  50  36 E10       30.06S
CARLSBAD       CLOUDY    71  57  61 CALM      30.03F
DRYDEN           N/A     76  61  59 E14       29.99S
FORT STOCKTON  CLOUDY    67  62  84 SE8       30.05S
GUAD PASS      CLOUDY    60  54  80 NE22      30.13S
HOBBS          MOSUNNY   72  54  53 E13G20    30.07S
MARFA          CLOUDY    63  54  72 N8        30.11F
MIDLAND AIRPK  PTSUNNY   77  54  44 SE13      30.05F
MIDLAND INTL   CLOUDY    77  52  41 E10       30.04S
ODESSA         CLOUDY    75  52  44 SE10      30.05S
PECOS          LGT RAIN  63  60  91 NE13      30.04R
PRESIDIO       LGT RAIN  67  60  78 W10       29.99S
SEMINOLE       MOSUNNY   76  53  45 SE14      30.07F
SNYDER         SUNNY     77  54  44 SE8       30.05S
WINK           LGT RAIN  69  63  81 SE8       30.02S
$$
...OTHER STATIONS IN TEXAS...

CITY           SKY/WX    TMP DP  RH WIND       PRES   REMARKS
ABILENE        MOSUNNY   81  53  37 E6        30.02F
AMARILLO       PTSUNNY   76  52  43 VRB5      30.07F
AUSTIN         PTSUNNY   81  59  47 NE8       29.99F
BROWNSVILLE    MOSUNNY   86  67  52 NE10      29.88S
CORPUS CHRISTI PTSUNNY   74  70  87 NE9       29.95F
DALLAS FTW     MOSUNNY   80  59  48 S6        30.00F
DEL RIO        PTSUNNY   79  63  57 SE7       29.96F
EL PASO        PTSUNNY   72  50  45 SE14G21   30.01S
HOUSTON INT    MOSUNNY   80  57  45 N6        29.99S
LUBBOCK        MOSUNNY   76  54  46 SE9       30.06F
SAN ANGELO     MOSUNNY   81  54  39 NE8       30.01F
SAN ANTONIO    PTSUNNY   82  57  42 NE12      29.98F
WACO           SUNNY     80  58  46 E6        30.00F
WICHITA FALLS  NOT AVBL
$$
...OTHER LOCATIONS IN NEW MEXICO...

CITY           SKY/WX    TMP DP  RH WIND       PRES   REMARKS
ALAMAGORDO     NOT AVBL
ALBUQUERQUE    TSTM      58  49  72 E23G30    30.16R
CANNON AFB     PTSUNNY   73  49  42 SE9       30.10R
CLOVIS         PTSUNNY   73  52  46 SE13      30.11S
HOLLOMAN AFB   PTSUNNY   66  55  66 SE1       30.05S
ROSWELL        MOSUNNY   73  57  57 S7        30.05F
RUIDOSO        PTSUNNY   57  48  72 SE10      30.21S
SANTA FE       PTSUNNY   69  39  33 W16       30.15S
TRUTH OR CONSE MOSUNNY   71  47  42 CALM      30.07F
TUCUMCARI      SUNNY     78  44  29 VRB6      30.06F
$$



USA.gov is the U.S. government's official web portal to all federal, state and local government web resources and services.